When you browse on this site, cookies collect data to enhance your experience and personalize the content and advertising you see.
Visit our Privacy Policy to learn more. By continuing to use the site, you agree to this use of cookies and data.
  • în România
  • Lista ţărilor
  • Pe 7 zile
  • Temperatura apei
  • Hartă satelitară
  • Meteo pe hartă
  • Widget-uri
  • user-avatar
    Intrare

    Meteo pe oră la Abancay

    Astăzi, 26 Mai, Duminică

    Timp Temperatura Precipitaţii Vânt Presiune Umiditate
    00:00 +8°C° 0 mm 1 m/s 542 mmHg 79%
    01:00 +8°C° 0 mm 1 m/s 542 mmHg 79%
    02:00 +8°C° 0 mm 1 m/s 542 mmHg 79%
    03:00 +8°C° 0 mm 1 m/s 542 mmHg 79%
    04:00 +7°C° 0 mm 1 m/s 541 mmHg 79%
    05:00 +8°C° 0 mm 1 m/s 542 mmHg 75%
    06:00 +9°C° 0 mm 1 m/s 543 mmHg 70%
    07:00 +9°C° 0 mm 2 m/s 544 mmHg 66%
    08:00 +13°C° 0 mm 1 m/s 545 mmHg 56%
    09:00 +18°C° 0 mm 1 m/s 547 mmHg 46%
    10:00 +21°C° 0 mm 1 m/s 548 mmHg 36%
    11:00 +21°C° 0 mm 2 m/s 548 mmHg 33%
    12:00 +23°C° 0 mm 2 m/s 548 mmHg 31%
    13:00 +24°C° 0 mm 3 m/s 548 mmHg 28%
    14:00 +22°C° 0 mm 3 m/s 547 mmHg 31%
    15:00 +22°C° 0 mm 3 m/s 546 mmHg 34%
    16:00 +21°C° 0 mm 3 m/s 546 mmHg 37%
    17:00 +18°C° 0 mm 3 m/s 544 mmHg 51%
    18:00 +14°C° 0 mm 2 m/s 543 mmHg 65%
    19:00 +11°C° 0 mm 1 m/s 542 mmHg 79%
    20:00 +10°C° 0 mm 1 m/s 542 mmHg 80%
    21:00 +10°C° 0 mm 1 m/s 543 mmHg 81%
    22:00 +10°C° 0 mm 1 m/s 543 mmHg 83%
    23:00 +10°C° 0 mm 1 m/s 543 mmHg 82%

    Mâine, 27 Mai, Luni

    Timp Temperatura Precipitaţii Vânt Presiune Umiditate
    00:00 +9°C° 0 mm 1 m/s 543 mmHg 82%
    01:00 +9°C° 0 mm 1 m/s 543 mmHg 82%
    02:00 +9°C° 0 mm 1 m/s 542 mmHg 82%
    03:00 +9°C° 0 mm 1 m/s 542 mmHg 83%
    04:00 +8°C° 0 mm 1 m/s 541 mmHg 83%
    05:00 +9°C° 0 mm 1 m/s 542 mmHg 80%
    06:00 +10°C° 0 mm 1 m/s 543 mmHg 76%
    07:00 +9°C° 0 mm 2 m/s 543 mmHg 73%
    08:00 +14°C° 0 mm 2 m/s 545 mmHg 60%
    09:00 +17°C° 0 mm 2 m/s 546 mmHg 47%
    10:00 +20°C° 0 mm 2 m/s 548 mmHg 34%
    11:00 +21°C° 0 mm 2 m/s 548 mmHg 31%
    12:00 +22°C° 0 mm 3 m/s 548 mmHg 28%
    13:00 +24°C° 0 mm 3 m/s 547 mmHg 26%
    14:00 +24°C° 0 mm 3 m/s 547 mmHg 29%
    15:00 +22°C° 0 mm 3 m/s 546 mmHg 31%
    16:00 +21°C° 0 mm 3 m/s 545 mmHg 34%
    17:00 +18°C° 0 mm 3 m/s 544 mmHg 49%
    18:00 +14°C° 0 mm 2 m/s 543 mmHg 64%
    19:00 +11°C° 0 mm 1 m/s 542 mmHg 79%
    20:00 +10°C° 0 mm 1 m/s 542 mmHg 81%
    21:00 +10°C° 0 mm 1 m/s 543 mmHg 82%
    22:00 +8°C° 0 mm 0 m/s 543 mmHg 84%
    23:00 +9°C° 0 mm 1 m/s 543 mmHg 84%

    Poimâine, 28 Mai, Marţi

    Timp Temperatura Precipitaţii Vânt Presiune Umiditate
    00:00 +9°C° 0 mm 1 m/s 542 mmHg 84%
    01:00 +9°C° 0 mm 1 m/s 542 mmHg 83%
    02:00 +9°C° 0 mm 1 m/s 542 mmHg 83%
    03:00 +8°C° 0 mm 1 m/s 541 mmHg 83%
    04:00 +8°C° 0 mm 1 m/s 541 mmHg 82%
    05:00 +9°C° 0 mm 1 m/s 542 mmHg 79%
    06:00 +10°C° 0 mm 1 m/s 542 mmHg 75%
    07:00 +9°C° 0 mm 2 m/s 543 mmHg 72%
    08:00 +14°C° 0 mm 2 m/s 545 mmHg 58%
    09:00 +17°C° 0 mm 2 m/s 546 mmHg 45%
    10:00 +20°C° 0 mm 2 m/s 548 mmHg 32%
    11:00 +21°C° 0 mm 2 m/s 548 mmHg 30%
    12:00 +22°C° 0 mm 3 m/s 548 mmHg 28%
    13:00 +24°C° 0 mm 3 m/s 547 mmHg 26%
    14:00 +24°C° 0 mm 3 m/s 547 mmHg 30%
    15:00 +22°C° 0 mm 3 m/s 546 mmHg 33%
    16:00 +21°C° 0 mm 3 m/s 545 mmHg 37%
    17:00 +18°C° 0 mm 3 m/s 544 mmHg 51%
    18:00 +15°C° 0 mm 2 m/s 543 mmHg 65%
    19:00 +11°C° 0 mm 1 m/s 542 mmHg 80%
    20:00 +11°C° 0 mm 1 m/s 542 mmHg 81%
    21:00 +11°C° 0 mm 1 m/s 543 mmHg 83%
    22:00 +10°C° 0 mm 1 m/s 543 mmHg 84%
    23:00 +10°C° 0 mm 1 m/s 543 mmHg 84%

    29 Mai, Miercuri

    Timp Temperatura Precipitaţii Vânt Presiune Umiditate
    00:00 +10°C° 0 mm 1 m/s 543 mmHg 83%
    01:00 +10°C° 0 mm 1 m/s 543 mmHg 83%
    02:00 +10°C° 0 mm 1 m/s 542 mmHg 83%
    03:00 +10°C° 0 mm 1 m/s 542 mmHg 83%
    04:00 +10°C° 0 mm 1 m/s 542 mmHg 82%
    05:00 +11°C° 0 mm 1 m/s 543 mmHg 79%
    06:00 +11°C° 0 mm 1 m/s 544 mmHg 76%
    07:00 +12°C° 0 mm 1 m/s 545 mmHg 72%
    08:00 +15°C° 0 mm 1 m/s 546 mmHg 62%
    09:00 +19°C° 0 mm 1 m/s 547 mmHg 52%
    10:00 +22°C° 0 mm 1 m/s 548 mmHg 42%
    11:00 +23°C° 0 mm 2 m/s 548 mmHg 39%
    12:00 +24°C° 0 mm 3 m/s 548 mmHg 36%
    13:00 +25°C° 0 mm 3 m/s 547 mmHg 33%
    14:00 +24°C° 0 mm 3 m/s 547 mmHg 35%
    15:00 +22°C° 0 mm 3 m/s 546 mmHg 38%
    16:00 +22°C° 0 mm 3 m/s 545 mmHg 40%
    17:00 +18°C° 0.1 mm 3 m/s 544 mmHg 53%
    18:00 +15°C° 0.1 mm 2 m/s 544 mmHg 67%
    19:00 +12°C° 0.1 mm 1 m/s 543 mmHg 80%
    20:00 +11°C° 0 mm 1 m/s 543 mmHg 81%
    21:00 +11°C° 0 mm 1 m/s 543 mmHg 83%
    22:00 +9°C° 0 mm 0 m/s 543 mmHg 84%
    23:00 +9°C° 0 mm 0 m/s 543 mmHg 84%

    30 Mai, Joi

    Timp Temperatura Precipitaţii Vânt Presiune Umiditate
    00:00 +9°C° 0 mm 0 m/s 543 mmHg 85%
    01:00 +9°C° 0 mm 0 m/s 542 mmHg 85%
    02:00 +10°C° 0 mm 1 m/s 542 mmHg 85%
    03:00 +10°C° 0 mm 1 m/s 542 mmHg 85%
    04:00 +10°C° 0 mm 1 m/s 542 mmHg 85%
    05:00 +10°C° 0 mm 1 m/s 543 mmHg 83%
    06:00 +11°C° 0 mm 1 m/s 543 mmHg 80%
    07:00 +10°C° 0 mm 2 m/s 544 mmHg 78%
    08:00 +15°C° 0 mm 1 m/s 545 mmHg 64%
    09:00 +19°C° 0 mm 1 m/s 547 mmHg 51%
    10:00 +22°C° 0 mm 1 m/s 548 mmHg 37%
    11:00 +23°C° 0 mm 2 m/s 548 mmHg 33%
    12:00 +24°C° 0 mm 2 m/s 548 mmHg 29%
    13:00 +25°C° 0 mm 3 m/s 548 mmHg 25%
    14:00 +25°C° 0 mm 3 m/s 547 mmHg 28%
    15:00 +24°C° 0 mm 3 m/s 546 mmHg 31%
    16:00 +22°C° 0 mm 3 m/s 546 mmHg 34%
    17:00 +19°C° 0 mm 3 m/s 545 mmHg 48%
    18:00 +15°C° 0 mm 2 m/s 544 mmHg 62%
    19:00 +12°C° 0 mm 1 m/s 542 mmHg 77%
    20:00 +11°C° 0 mm 1 m/s 542 mmHg 78%
    21:00 +11°C° 0 mm 1 m/s 542 mmHg 80%
    22:00 +9°C° 0 mm 0 m/s 542 mmHg 81%
    23:00 +10°C° 0 mm 1 m/s 542 mmHg 82%

    31 Mai, Vineri

    Timp Temperatura Precipitaţii Vânt Presiune Umiditate
    00:00 +10°C° 0 mm 1 m/s 542 mmHg 82%
    01:00 +10°C° 0 mm 1 m/s 542 mmHg 82%
    02:00 +9°C° 0 mm 1 m/s 541 mmHg 82%
    03:00 +9°C° 0 mm 1 m/s 541 mmHg 82%
    04:00 +9°C° 0 mm 1 m/s 541 mmHg 82%
    05:00 +10°C° 0 mm 1 m/s 542 mmHg 79%
    06:00 +11°C° 0 mm 1 m/s 542 mmHg 75%
    07:00 +11°C° 0 mm 1 m/s 543 mmHg 72%
    08:00 +15°C° 0 mm 1 m/s 545 mmHg 58%
    09:00 +19°C° 0 mm 1 m/s 546 mmHg 44%
    10:00 +22°C° 0 mm 1 m/s 548 mmHg 30%
    11:00 +23°C° 0 mm 2 m/s 547 mmHg 27%
    12:00 +24°C° 0 mm 2 m/s 547 mmHg 24%
    13:00 +26°C° 0 mm 3 m/s 547 mmHg 21%
    14:00 +25°C° 0 mm 3 m/s 546 mmHg 23%
    15:00 +24°C° 0 mm 3 m/s 546 mmHg 25%
    16:00 +22°C° 0 mm 4 m/s 545 mmHg 27%
    17:00 +19°C° 0 mm 3 m/s 544 mmHg 41%
    18:00 +15°C° 0 mm 2 m/s 543 mmHg 55%
    19:00 +12°C° 0 mm 1 m/s 541 mmHg 69%
    20:00 +11°C° 0 mm 1 m/s 541 mmHg 72%
    21:00 +10°C° 0 mm 0 m/s 542 mmHg 75%
    22:00 +9°C° 0 mm 0 m/s 542 mmHg 78%
    23:00 +9°C° 0 mm 0 m/s 541 mmHg 78%
    Arată mai mult